Tracking 26321 objects as of 27-Nov-2022
HD Live streaming from Space Station
objects crossing your sky now

STTW-T2

Track STTW-T2 now!
STTW-T2 is classified as:


NORAD ID: 14899
Int'l Code: 1984-035A
Perigee: 35,745.9 km
Apogee: 35,833.4 km
Inclination: 11.7 °
Period: 1,435.9 minutes
Semi major axis: 42160 km
RCS: 3.981 m2 (large)
Launch date: April 8, 1984
Source: People's Republic of China (PRC)
Launch site: Xichang Space Center, China (XSC)
aabbcc
Your satellite tracking list
Your tracking list is empty




NASA's NSSDC Master Catalog

Two Line Element Set (TLE):
1 14899U 84035A   22330.81815097 -.00000318  00000-0  00000-0 0  9993
2 14899  11.6839 327.1769 0010377 155.5037  12.0484  1.00286234 34350
Source of the keplerian elements: AFSPC